DW1770 Weather Reports


Display with metric or nautical units.
time (UTC)temp
F
wind
direction
speed
MPH
gust
MPH
rain 1hr
in
rain 24hr
in
rain mn
in
humidity
%
barometer
mb
20240715174202 92 161 2.0 5.0 0.00 0.00 0.00 49 1009.5
20240715173932 92 277 2.0 10.0 0.00 0.00 0.00 40 1009.5
20240715173202 93 17 4.0 10.0 0.00 0.00 0.00 47 1009.6
20240715172702 93 66 3.0 10.0 0.00 0.00 0.00 46 1009.6
20240715172201 93 18 5.0 10.0 0.00 0.00 0.00 47 1009.7
20240715171701 93 268 2.0 12.0 0.00 0.00 0.00 47 1009.7
20240715171201 92 319 5.0 12.0 0.00 0.00 0.00 48 1009.8
20240715170701 92 306 3.0 10.0 0.00 0.00 0.00 49 1009.7
20240715170216 91 37 2.0 9.0 0.00 0.00 0.00 50 1009.8
20240715165700 90 303 3.0 11.0 0.00 0.00 0.00 51 1009.8
20240715165425 91 9 5.0 11.0 0.00 0.00 0.00 49 1010.0
20240715164922 91 5 3.0 11.0 0.00 0.00 0.00 48 1010.0
20240715164201 91 30 5.0 13.0 0.00 0.00 0.00 47 1010.1
20240715163700 92 11 5.0 11.0 0.00 0.00 0.00 46 1010.1
20240715163202 92 254 2.0 7.0 0.00 0.00 0.00 48 1010.0
20240715162701 92 349 1.0 6.0 0.00 0.00 0.00 49 1010.2
20240715162201 91 302 2.0 8.0 0.00 0.00 0.00 51 1010.2
20240715161701 91 307 3.0 8.0 0.00 0.00 0.00 48 1010.1
20240715161200 91 30 4.0 7.0 0.00 0.00 0.00 43 1010.2
20240715160700 91 348 3.0 7.0 0.00 0.00 0.00 50 1010.2
20240715160215 91 5 2.0 8.0 0.00 0.00 0.00 51 1010.2
20240715155703 91 261 2.0 8.0 0.00 0.00 0.00 49 1010.1
20240715155201 91 35 2.0 9.0 0.00 0.00 0.00 48 1010.1
20240715154701 92 317 3.0 9.0 0.00 0.00 0.00 46 1010.1
20240715154202 93 352 2.0 8.0 0.00 0.00 0.00 47 1010.1
20240715153700 93 121 2.0 9.0 0.00 0.00 0.00 47 1010.2
20240715153201 93 244 2.0 9.0 0.00 0.00 0.00 47 1010.2
20240715152701 93 313 2.0 6.0 0.00 0.00 0.00 49 1010.3
20240715152201 92 178 1.0 7.0 0.00 0.00 0.00 50 1010.2
20240715151701 92 342 1.0 7.0 0.00 0.00 0.00 51 1010.2
20240715151422 92 217 3.0 5.0 0.00 0.00 0.00 45 1010.2
20240715150701 91 217 2.0 5.0 0.00 0.00 0.00 54 1010.2
20240715150214 91 261 1.0 5.0 0.00 0.00 0.00 56 1010.2
20240715145701 90 48 1.0 4.0 0.00 0.00 0.00 59 1010.2
20240715145426 89 0 1.0 5.0 0.00 0.00 0.00 60 1010.3
20240715144924 89 13 1.0 6.0 0.00 0.00 0.00 61 1010.2
20240715144201 88 191 2.0 6.0 0.00 0.00 0.00 62 1010.4
20240715143703 88 212 2.0 5.0 0.00 0.00 0.00 53 1010.4
20240715143201 87 352 1.0 4.0 0.00 0.00 0.00 63 1010.4
20240715142923 86 292 2.0 3.0 0.00 0.00 0.00 64 1010.4
20240715142201 85 317 0.0 4.0 0.00 0.00 0.00 66 1010.4
20240715141701 85 352 2.0 4.0 0.00 0.00 0.00 66 1010.4
20240715141202 84 279 1.0 4.0 0.00 0.00 0.00 67 1010.4
20240715140921 83 236 2.0 4.0 0.00 0.00 0.00 68 1010.4
20240715140437 83 192 0.0 5.0 0.00 0.00 0.00 70 1010.3
20240715135930 82 206 3.0 5.0 0.00 0.00 0.00 70 1010.3
20240715135424 81 238 1.0 3.0 0.00 0.00 0.00 73 1010.2
20240715134202 79 255 1.0 3.0 0.00 0.00 0.00 75 1010.4
20240715133701 78 184 0.0 2.0 0.00 0.00 0.00 76 1010.6
20240715133201 78 236 0.0 3.0 0.00 0.00 0.00 75 1010.7
20240715132703 78 202 0.0 3.0 0.00 0.00 0.00 76 1010.8
20240715132200 77 189 1.0 3.0 0.00 0.00 0.00 76 1010.8
20240715131204 77 187 0.0 2.0 0.00 0.00 0.00 77 1011.0
20240715130701 76 0 1.0 3.0 0.00 0.00 0.00 78 1010.8
20240715130215 76 245 0.0 3.0 0.00 0.00 0.00 79 1010.9
20240715125701 76 208 0.0 2.0 0.00 0.00 0.00 79 1011.1
20240715125201 75 204 0.0 3.0 0.00 0.00 0.00 79 1011.2
20240715124933 75 238 1.0 3.0 0.00 0.00 0.00 79 1011.3
20240715124423 74 281 1.0 2.0 0.00 0.00 0.00 80 1011.4
20240715123704 74 221 0.0 2.0 0.00 0.00 0.00 80 1011.4
20240715122702 74 224 0.0 1.0 0.00 0.00 0.00 81 1011.5
20240715122203 74 224 0.0 1.0 0.00 0.00 0.00 81 1011.5
20240715121702 73 224 0.0 1.0 0.00 0.00 0.00 81 1011.5
20240715121419 73 224 0.0 1.0 0.00 0.00 0.00 81 1011.5
20240715120702 73 224 0.0 1.0 0.00 0.00 0.00 81 1011.6
20240715120440 73 224 0.0 1.0 0.00 0.00 0.00 81 1011.7
20240715115926 73 224 0.0 1.0 0.00 0.00 0.00 81 1011.8
20240715115201 73 224 0.0 1.0 0.00 0.00 0.00 82 1011.7
20240715114700 73 224 0.0 1.0 0.00 0.00 0.00 83 1011.7
20240715114425 72 224 0.0 1.0 0.00 0.00 0.00 83 1011.7
20240715113653 72 224 0.0 2.0 0.00 0.00 0.00 84 1011.6
20240715113410 72 221 0.0 2.0 0.00 0.00 0.00 84 1011.6
20240715112645 72 211 0.0 1.0 0.00 0.00 0.00 84 1011.6
20240715111639 71 228 0.0 2.0 0.00 0.00 0.00 85 1011.5
20240715111135 71 200 0.0 1.0 0.00 0.00 0.00 85 1011.4
20240715110632 70 214 0.0 0.0 0.00 0.00 0.00 85 1011.5
20240715110214 70 214 0.0 0.0 0.00 0.00 0.00 84 1011.5
20240715105630 70 214 0.0 0.0 0.00 0.00 0.00 84 1011.5
20240715105129 70 214 0.0 0.0 0.00 0.00 0.00 84 1011.5
20240715104625 70 214 0.0 0.0 0.00 0.00 0.00 84 1011.5
20240715104344 70 214 0.0 0.0 0.00 0.00 0.00 84 1011.5
20240715103613 70 214 0.0 0.0 0.00 0.00 0.00 84 1011.7
20240715103112 69 214 0.0 0.0 0.00 0.00 0.00 84 1011.6
20240715102608 69 214 0.0 1.0 0.00 0.00 0.00 84 1011.4
20240715102326 69 214 0.0 1.0 0.00 0.00 0.00 84 1011.5
20240715101822 69 214 0.0 1.0 0.00 0.00 0.00 84 1011.4
20240715101101 69 214 0.0 1.0 0.00 0.00 0.00 83 1011.5
20240715100602 69 214 0.0 1.0 0.00 0.00 0.00 83 1011.6
20240715100213 69 214 0.0 1.0 0.00 0.00 0.00 83 1011.7
20240715095600 69 214 0.0 0.0 0.00 0.00 0.00 83 1011.7
20240715095320 69 214 0.0 0.0 0.00 0.00 0.00 83 1011.8
20240715094602 69 214 0.0 1.0 0.00 0.00 0.00 83 1011.7
20240715094101 68 214 0.0 1.0 0.00 0.00 0.00 83 1011.8
20240715093601 68 214 0.0 1.0 0.00 0.00 0.00 83 1011.7
20240715093101 68 214 0.0 0.0 0.00 0.00 0.00 83 1011.7
20240715092601 68 214 0.0 0.0 0.00 0.00 0.00 83 1011.8
20240715092104 68 214 0.0 0.0 0.00 0.00 0.00 83 1011.9
20240715091327 68 214 0.0 0.0 0.00 0.00 0.00 82 1011.8
20240715090601 68 214 0.0 0.0 0.00 0.00 0.00 82 1011.8
20240715090131 68 214 0.0 0.0 0.00 0.00 0.00 82 1011.7
20240715085601 68 214 0.0 0.0 0.00 0.00 0.00 82 1011.7
20240715085101 68 214 0.0 0.0 0.00 0.00 0.00 82 1011.6
20240715084601 68 214 0.0 0.0 0.00 0.00 0.00 81 1011.5
20240715084101 68 214 0.0 0.0 0.00 0.00 0.00 81 1011.4
20240715083602 68 214 0.0 0.0 0.00 0.00 0.00 81 1011.5
20240715083101 68 214 0.0 0.0 0.00 0.00 0.00 81 1011.5
20240715082601 68 214 0.0 0.0 0.00 0.00 0.00 81 1011.6
20240715082321 68 214 0.0 1.0 0.00 0.00 0.00 81 1011.6
20240715081822 68 214 0.0 1.0 0.00 0.00 0.00 81 1011.4
20240715081102 68 214 0.0 1.0 0.00 0.00 0.00 82 1011.5
20240715080602 68 214 0.0 1.0 0.00 0.00 0.00 82 1011.6
20240715080213 68 214 0.0 1.0 0.00 0.00 0.00 81 1011.6
20240715075826 68 214 0.0 0.0 0.00 0.00 0.00 81 1011.5
20240715075100 68 214 0.0 0.0 0.00 0.00 0.00 81 1011.5
20240715074603 68 214 0.0 0.0 0.00 0.00 0.00 81 1011.5
20240715074101 68 214 0.0 0.0 0.00 0.00 0.00 81 1011.4
20240715073602 69 214 0.0 0.0 0.00 0.00 0.00 80 1011.4
20240715073101 69 214 0.0 0.0 0.00 0.00 0.00 79 1011.4
20240715072602 69 214 0.0 0.0 0.00 0.00 0.00 79 1011.4
20240715072325 69 214 0.0 0.0 0.00 0.00 0.00 79 1011.4
20240715071602 69 214 0.0 0.0 0.00 0.00 0.00 78 1011.4
20240715071323 69 214 0.0 0.0 0.00 0.00 0.00 77 1011.3
20240715070602 69 214 0.0 0.0 0.00 0.00 0.00 77 1011.3
20240715070213 69 214 0.0 0.0 0.00 0.00 0.00 76 1011.4
20240715065602 69 214 0.0 0.0 0.00 0.00 0.00 76 1011.4
20240715065101 70 214 0.0 0.0 0.00 0.00 0.00 76 1011.4
20240715064602 70 214 0.0 0.0 0.00 0.00 0.00 76 1011.4
20240715064100 70 214 0.0 0.0 0.00 0.00 0.00 76 1011.5
20240715063602 70 214 0.0 0.0 0.00 0.00 0.00 76 1011.6
20240715063100 70 214 0.0 0.0 0.00 0.00 0.00 75 1011.6
20240715062600 70 214 0.0 0.0 0.00 0.00 0.00 74 1011.8
20240715062101 70 214 0.0 1.0 0.00 0.00 0.00 74 1011.8
20240715061601 70 214 0.0 1.0 0.00 0.00 0.00 74 1011.9
20240715061100 70 214 0.0 1.0 0.00 0.00 0.00 73 1012.0
20240715060601 70 214 0.0 0.0 0.00 0.00 0.00 72 1012.0
20240715060214 70 214 0.0 0.0 0.00 0.00 0.00 72 1012.1
20240715055601 71 214 0.0 1.0 0.00 0.00 0.00 72 1012.0
20240715055101 71 214 0.0 1.0 0.00 0.00 0.00 72 1012.1
20240715054822 71 214 0.0 0.0 0.00 0.00 0.00 72 1012.2
20240715054323 71 214 0.0 1.0 0.00 0.00 0.00 72 1012.3
20240715053601 71 214 0.0 2.0 0.00 0.00 0.00 72 1012.3
20240715053101 71 207 1.0 2.0 0.00 0.00 0.00 71 1012.4
20240715052601 71 227 0.0 2.0 0.00 0.00 0.00 73 1012.3
20240715052101 71 227 0.0 2.0 0.00 0.00 0.00 73 1012.4
20240715051600 71 220 0.0 2.0 0.00 0.00 0.00 73 1012.5
20240715051102 72 227 0.0 2.0 0.00 0.00 0.00 72 1012.5
20240715050602 72 224 0.0 2.0 0.00 0.00 0.00 72 1012.5
20240715050212 72 224 0.0 2.0 0.00 0.00 0.00 64 1012.6
20240715045603 72 198 0.0 1.0 0.00 0.00 0.00 73 1012.6
20240715045101 72 198 0.0 1.0 0.00 0.00 0.00 72 1012.8
20240715044602 73 198 0.0 1.0 0.00 0.00 0.00 71 1012.6
20240715044101 73 198 0.0 2.0 0.00 0.00 0.00 71 1012.6
20240715043602 73 198 0.0 2.0 0.00 0.00 0.00 70 1012.5
20240715043101 73 195 0.0 1.0 0.00 0.00 0.00 70 1012.8
20240715042601 73 195 0.0 0.0 0.00 0.00 0.00 69 1012.8
20240715042101 73 195 0.0 0.0 0.00 0.00 0.00 68 1012.8
20240715041601 73 195 0.0 0.0 0.00 0.00 0.00 68 1012.5
20240715041100 73 195 0.0 0.0 0.00 0.00 0.00 67 1012.6
20240715040602 73 195 0.0 0.0 0.00 0.00 0.00 66 1012.8
20240715040213 73 195 0.0 0.0 0.00 0.00 0.00 66 1012.8
20240715035601 73 195 0.0 0.0 0.00 0.00 0.00 65 1012.8
20240715035101 74 195 0.0 0.0 0.00 0.00 0.00 65 1012.8
20240715034602 74 195 0.0 0.0 0.00 0.00 0.00 65 1012.8
20240715034102 74 195 0.0 0.0 0.00 0.00 0.00 64 1012.8
20240715033600 74 195 0.0 0.0 0.00 0.00 0.00 64 1012.8
20240715033101 74 195 0.0 0.0 0.00 0.00 0.00 63 1012.6
20240715032603 74 195 0.0 0.0 0.00 0.00 0.00 62 1012.5
20240715032102 74 195 0.0 0.0 0.00 0.00 0.00 62 1012.8
20240715031602 75 195 0.0 0.0 0.00 0.00 0.00 62 1012.5
20240715031101 75 195 0.0 0.0 0.00 0.00 0.00 62 1012.8
20240715030602 75 195 0.0 0.0 0.00 0.00 0.00 62 1012.8
20240715030213 75 195 0.0 0.0 0.00 0.00 0.00 62 1012.8
20240715025826 75 195 0.0 0.0 0.00 0.00 0.00 61 1012.8
20240715025101 75 195 0.0 0.0 0.00 0.00 0.00 60 1012.9
20240715024602 75 195 0.0 0.0 0.00 0.00 0.00 61 1013.0
20240715024101 76 195 0.0 1.0 0.00 0.00 0.00 61 1012.9
20240715023602 76 195 0.0 2.0 0.00 0.00 0.00 62 1012.9
20240715023101 76 195 0.0 2.0 0.00 0.00 0.00 61 1012.9
20240715022604 76 235 0.0 1.0 0.00 0.00 0.00 61 1012.9
20240715022324 76 310 0.0 0.0 0.00 0.00 0.00 60 1012.9
20240715021603 76 310 0.0 0.0 0.00 0.00 0.00 59 1012.9
20240715021323 77 310 0.0 0.0 0.00 0.00 0.00 59 1013.0
20240715020603 77 310 0.0 0.0 0.00 0.00 0.00 60 1013.0
20240715020212 77 310 0.0 0.0 0.00 0.00 0.00 60 1013.1
20240715015602 78 310 0.0 0.0 0.00 0.00 0.00 60 1013.1
20240715015100 78 310 0.0 0.0 0.00 0.00 0.00 59 1013.1
20240715014602 78 310 0.0 0.0 0.00 0.00 0.00 59 1013.0
20240715014103 78 310 0.0 0.0 0.00 0.00 0.00 59 1013.0
20240715013822 79 310 0.0 2.0 0.00 0.00 0.00 59 1013.0
20240715013325 79 310 0.0 2.0 0.00 0.00 0.00 59 1013.1
20240715012600 79 271 0.0 1.0 0.00 0.00 0.00 59 1013.0
20240715012100 80 271 0.0 1.0 0.00 0.00 0.00 58 1013.0
20240715011600 80 344 0.0 1.0 0.00 0.00 0.00 58 1013.0
20240715011101 80 309 0.0 1.0 0.00 0.00 0.00 58 1013.0
20240715010822 81 309 0.0 1.0 0.00 0.00 0.00 57 1012.9
20240715010211 81 204 0.0 1.0 0.00 0.00 0.00 57 1012.9
20240715005603 81 198 0.0 1.0 0.00 0.00 0.00 56 1012.8
20240715005102 82 198 0.0 1.0 0.00 0.00 0.00 55 1012.6
20240715004601 82 225 0.0 1.0 0.00 0.00 0.00 55 1012.6
20240715004100 82 225 0.0 1.0 0.00 0.00 0.00 54 1012.6
20240715003602 83 178 0.0 1.0 0.00 0.00 0.00 54 1012.8
20240715003101 83 178 0.0 1.0 0.00 0.00 0.00 53 1012.6
20240715002824 83 178 0.0 1.0 0.00 0.00 0.00 52 1012.6
20240715002102 84 209 0.0 1.0 0.00 0.00 0.00 51 1012.6
20240715001823 84 209 0.0 1.0 0.00 0.00 0.00 50 1012.8
20240715001102 84 209 0.0 1.0 0.00 0.00 0.00 50 1012.8
20240715000601 85 191 0.0 1.0 0.00 0.00 0.00 49 1012.6
20240715000441 85 210 0.0 2.0 0.00 0.00 0.00 48 1012.8
20240714235832 86 182 0.0 4.0 0.00 0.00 0.00 47 1012.6
20240714235100 86 223 1.0 4.0 0.00 0.00 0.00 46 1012.6
20240714234600 87 207 1.0 2.0 0.00 0.00 0.00 45 1012.8
20240714234101 87 321 0.0 1.0 0.00 0.00 0.00 44 1012.8
20240714233600 87 321 1.0 3.0 0.00 0.00 0.00 43 1012.8
20240714233101 88 346 1.0 3.0 0.00 0.00 0.00 43 1012.6
20240714232601 88 298 0.0 3.0 0.00 0.00 0.00 43 1012.5
20240714232102 88 355 0.0 3.0 0.00 0.00 0.00 42 1012.5
20240714231601 89 331 0.0 3.0 0.00 0.00 0.00 34 1012.6
20240714231100 89 275 0.0 3.0 0.00 0.00 0.00 40 1012.6
20240714230600 89 281 0.0 3.0 0.00 0.00 0.00 40 1012.6
20240714230212 90 254 1.0 4.0 0.00 0.00 0.00 31 1012.5
20240714225601 90 324 0.0 4.0 0.00 0.00 0.00 39 1012.5
20240714225327 90 5 2.0 4.0 0.00 0.00 0.00 39 1012.6
20240714224829 90 272 2.0 4.0 0.00 0.00 0.00 29 1012.5
20240714224102 91 5 1.0 4.0 0.00 0.00 0.00 38 1012.5
20240714223601 90 339 2.0 6.0 0.00 0.00 0.00 38 1012.5
20240714223103 91 340 1.0 6.0 0.00 0.00 0.00 38 1012.5
20240714222601 92 269 2.0 4.0 0.00 0.00 0.00 29 1012.4
20240714222102 92 320 1.0 4.0 0.00 0.00 0.00 36 1012.4
20240714221601 92 293 1.0 4.0 0.00 0.00 0.00 35 1012.5
20240714221101 92 281 1.0 4.0 0.00 0.00 0.00 36 1012.5
20240714220826 92 337 1.0 6.0 0.00 0.00 0.00 36 1012.6
20240714220213 92 306 2.0 6.0 0.00 0.00 0.00 35 1012.6
20240714215600 92 301 1.0 3.0 0.00 0.00 0.00 37 1012.6
20240714215101 92 261 1.0 4.0 0.00 0.00 0.00 28 1012.5
20240714214601 92 327 2.0 4.0 0.00 0.00 0.00 36 1012.4
20240714214101 92 227 1.0 3.0 0.00 0.00 0.00 38 1012.5
20240714213601 92 225 1.0 3.0 0.00 0.00 0.00 38 1012.5
20240714213100 92 318 1.0 5.0 0.00 0.00 0.00 40 1012.5
20240714212601 92 308 2.0 5.0 0.00 0.00 0.00 31 1012.5
20240714212101 91 273 1.0 9.0 0.00 0.00 0.00 42 1012.8
20240714211601 92 247 2.0 9.0 0.00 0.00 0.00 38 1012.6
20240714211100 92 349 2.0 8.0 0.00 0.00 0.00 40 1012.5
20240714210558 92 271 2.0 8.0 0.00 0.00 0.00 40 1012.5
20240714210213 92 285 1.0 5.0 0.00 0.00 0.00 39 1012.6
20240714205556 92 18 2.0 5.0 0.00 0.00 0.00 39 1012.6
20240714205051 92 282 2.0 4.0 0.00 0.00 0.00 39 1012.8
20240714204547 92 246 1.0 4.0 0.00 0.00 0.00 40 1012.8
20240714203540 92 5 2.0 5.0 0.00 0.00 0.00 41 1012.9
20240714203039 90 5 0.0 4.0 0.00 0.00 0.00 43 1013.0
20240714202537 90 267 1.0 4.0 0.00 0.00 0.00 42 1012.9
20240714202034 91 184 1.0 4.0 0.00 0.00 0.00 41 1013.0
20240714201754 91 26 1.0 5.0 0.00 0.00 0.00 41 1013.1
20240714201250 91 161 2.0 5.0 0.00 0.00 0.00 39 1013.2
20240714200530 92 336 1.0 4.0 0.00 0.00 0.00 41 1013.3
20240714200215 91 300 1.0 3.0 0.00 0.00 0.00 42 1013.4
20240714195529 91 251 2.0 5.0 0.00 0.00 0.00 33 1013.4
20240714195029 90 336 2.0 5.0 0.00 0.00 0.00 41 1013.6
20240714194529 92 302 2.0 5.0 0.00 0.00 0.00 40 1013.6
20240714194029 91 283 1.0 4.0 0.00 0.00 0.00 41 1013.6
20240714193529 92 318 2.0 8.0 0.00 0.00 0.00 40 1013.7
20240714193251 91 277 2.0 8.0 0.00 0.00 0.00 39 1013.7
20240714192532 91 222 1.0 7.0 0.00 0.00 0.00 43 1013.8
20240714192028 90 270 1.0 7.0 0.00 0.00 0.00 42 1013.8
20240714191530 91 5 1.0 4.0 0.00 0.00 0.00 43 1013.9
20240714191028 91 349 1.0 5.0 0.00 0.00 0.00 43 1013.9
20240714190528 90 327 0.0 7.0 0.00 0.00 0.00 42 1013.9
20240714190212 91 286 3.0 7.0 0.00 0.00 0.00 43 1014.0
20240714185756 91 355 2.0 6.0 0.00 0.00 0.00 43 1014.0
20240714185253 90 310 1.0 9.0 0.00 0.00 0.00 44 1014.1
20240714184532 91 5 3.0 9.0 0.00 0.00 0.00 41 1014.2
20240714184028 91 306 2.0 5.0 0.00 0.00 0.00 42 1014.2
20240714183756 90 292 2.0 5.0 0.00 0.00 0.00 42 1014.1
20240714183030 90 10 2.0 6.0 0.00 0.00 0.00 44 1014.2
20240714182528 90 0 1.0 8.0 0.00 0.00 0.00 42 1014.2
20240714182030 90 9 3.0 8.0 0.00 0.00 0.00 35 1014.3
20240714181529 90 22 3.0 8.0 0.00 0.00 0.00 45 1014.4
20240714181252 89 13 1.0 6.0 0.00 0.00 0.00 44 1014.4
20240714180528 89 326 3.0 6.0 0.00 0.00 0.00 45 1014.5
20240714180212 89 5 2.0 8.0 0.00 0.00 0.00 45 1014.5
20240714175528 90 257 3.0 8.0 0.00 0.00 0.00 36 1014.7
20240714175029 90 60 2.0 7.0 0.00 0.00 0.00 43 1014.6